CDT,Max TemperatureF,Mean TemperatureF,Min TemperatureF,Max Dew PointF,MeanDew PointF,Min DewpointF,Max Humidity, Mean Humidity, Min Humidity, Max Sea Level PressureIn, Mean Sea Level PressureIn, Min Sea Level PressureIn, Max VisibilityMiles, Mean VisibilityMiles, Min VisibilityMiles, Max Wind SpeedMPH, Mean Wind SpeedMPH, Max Gust SpeedMPH,PrecipitationIn, CloudCover, Events, WindDirDegrees
2013-3-1,42,38,35,30,28,25,75,67,57,30.07,30.04,30.01,10,10,10,12,6,16,0.00,8,,297
2013-3-2,37,35,32,30,27,25,87,72,60,30.12,30.07,30.02,10,10,8,14,8,18,0.00,8,,316
2013-3-3,44,35,26,25,20,14,75,59,34,30.16,30.12,30.09,10,10,10,16,7,21,0.00,4,,324
2013-3-4,60,42,24,37,25,19,86,51,27,30.20,30.08,29.96,10,10,9,13,3,18,0.00,1,,165
2013-3-5,64,50,35,55,42,27,82,71,54,30.04,29.93,29.72,10,10,6,24,9,39,0.38,7,Thunderstorm,241
2013-3-6,44,36,28,27,24,18,86,58,48,30.26,30.18,30.01,10,10,10,20,11,33,0.00,5,,334
2013-3-7,,,,,,,,,,,,,10,10,3,,,,0.00,0,,-1
2013-3-8,,,,,,,,,,,,,10,10,7,,,,0.00,0,,-1
2013-3-9,,,,,,,,,,,,,10,10,2,,,,0.00,0,,-1
2013-3-10,,,,,,,,,,,,,10,10,10,,,,0.00,0,,-1
2013-3-11,,,,,,,,,,,,,10,9,2,,,,0.84,4,,-1
2013-3-12,,,,,,,,,,,,,10,10,9,,,,0.00,1,,-1
2013-3-13,,,,,,,,,,,,,10,10,10,,,,0.00,0,,-1
2013-3-14,55,46,35,30,20,14,75,38,20,30.43,30.31,30.26,10,10,10,13,4,16,0.00,0,,316
2013-3-15,75,52,30,43,35,27,87,53,27,30.26,30.12,29.99,10,10,9,20,4,30,0.00,0,,236
2013-3-16,77,62,46,43,40,36,76,44,25,30.03,29.96,29.90,10,10,10,18,7,26,0.00,0,,227
2013-3-17,69,56,44,54,47,41,93,63,43,30.02,29.95,29.89,10,10,10,15,5,20,0.00,1,,205
2013-3-18,71,60,50,61,54,48,94,81,68,29.92,29.87,29.74,10,9,0,43,6,60,0.22,6,Thunderstorm,206
2013-3-19,62,50,37,50,33,23,93,52,26,30.13,30.07,29.91,10,10,10,14,8,20,0.00,0,,359
2013-3-20,59,49,39,30,23,12,65,39,21,30.17,30.08,29.97,10,10,6,18,5,25,0.00,0,,325
2013-3-21,48,39,30,28,19,12,70,44,24,30.08,30.00,29.95,10,10,10,12,5,20,0.00,0,,342
2013-3-22,48,42,35,39,32,23,87,66,50,30.07,30.01,29.97,10,10,5,12,4,,0.11,6,,75
2013-3-23,55,50,44,48,45,39,93,85,77,29.98,29.88,29.69,10,9,4,15,9,20,1.32,8,Thunderstorm,66
2013-3-24,73,57,39,54,43,25,88,67,41,29.82,29.65,29.51,10,10,5,29,12,38,0.78,7,Thunderstorm,323
2013-3-25,42,38,33,27,22,19,65,53,42,30.15,29.99,29.82,10,10,10,23,14,31,0.00,7,,313
2013-3-26,41,36,32,25,24,23,75,61,49,30.35,30.24,30.13,10,10,10,15,9,20,0.00,8,,331
2013-3-27,53,38,24,28,25,21,86,59,33,30.40,30.34,30.28,10,10,10,10,3,17,0.00,1,,333
2013-3-28,62,46,30,34,29,23,93,57,25,30.38,30.32,30.26,10,10,7,10,1,18,0.00,0,,339
2013-3-29,69,50,32,41,33,28,93,55,23,30.33,30.25,30.16,10,10,10,13,2,17,0.00,3,,222
2013-3-30,71,58,46,55,45,34,94,68,40,30.20,30.11,30.00,10,9,2,13,4,20,0.37,6,,67
2013-3-31,69,62,55,57,54,52,94,80,53,30.00,29.94,29.87,10,9,1,20,4,25,0.48,6,,242